SCP
0 0 0 0 0 0 0 0 0 2 3 5 5 4 4 3 2 2 1 1 0 0 0 0 1 1 0 1 1 1 0 0 0 0 -0 0 0 0 0 0 0 0 0
0 0 0 0 0 0 0 0 0 1 2 3 5 5 4 3 3 2 2 1 0 0 0 0 1 1 0 1 1 1 1 0 0 0 0 -0 0 -0 -0 0 0 0 0
0 0 0 0 0 0 0 0 0 0 1 2 5 4 4 3 5 3 2 1 1 1 1 1 1 2 1 1 2 1 1 1 0 0 0 0 0 0 0 0 0 0 0
0 0 0 0 0 0 0 0 0 0 1 1 4 3 4 3 3 3 2 2 1 1 1 3 4 2 1 4 2 1 1 0 0 0 0 0 0 0 0 0 0 0 0
0 0 0 0 0 0 0 0 0 0 1 1 3 4 4 6 5 4 5 2 2 2 2 2 3 3 2 1 0 0 0 0 0 0 0 0 0 0 0 0 0 0 0
0 0 0 0 0 0 0 0 0 0 0 0 1 2 3 3 2 5 6 1 1 4 3 2 3 2 1 0 0 0 0 0 0 0 0 0 0 0 0 0 0 0 0
0 0 0 0 0 0 0 0 0 0 0 0 1 2 3 3 2 7 5 3 3 5 4 3 2 0 0 0 0 0 0 0 0 0 0 0 0 0 0 0 0 0 0
-0 0 0 0 0 0 0 0 0 0 0 -0 1 2 3 5 5 3 5 7 9 6 3 0 0 0 0 0 0 0 0 0 0 0 0 0 0 0 0 0 0 0 0
0 0 0 0 0 0 0 0 0 0 0 -0 0 2 2 3 6 6 5 3 6 1 0 0 0 0 0 0 0 0 0 0 0 0 0 0 0 0 0 0 0 0 0
0 0 0 0 0 0 0 0 0 0 0 0 -0 1 2 1 4 4 5 4 2 0 0 0 0 0 0 0 0 0 0 0 0 0 0 0 0 0 0 0 0 0 0
0 0 0 0 0 0 0 0 0 0 0 0 0 0 1 2 2 5 3 1 0 0 0 0 0 0 0 0 0 0 0 0 0 0 0 0 0 0 0 0 0 0 0
0 0 0 0 0 0 0 0 0 0 0 0 0 0 1 2 2 2 1 0 0 0 0 0 0 0 0 0 0 0 0 0 0 0 0 0 0 0 0 0 0 0 0
0 0 0 0 0 0 0 0 0 0 0 0 0 0 1 1 2 0 0 0 0 0 0 0 0 0 0 0 0 0 0 0 0 0 0 0 0 0 0 0 0 0 0
0 0 0 0 0 0 0 0 0 0 0 0 0 1 1 1 0 0 0 0 0 0 0 0 0 0 0 0 0 0 0 0 0 0 0 0 0 0 0 0 0 0 0
0 0 0 0 0 0 0 0 0 0 0 1 1 1 1 0 0 0 0 0 0 0 0 0 0 0 0 0 0 0 0 0 0 0 0 0 0 0 0 0 0 0 0
0 0 0 0 0 0 0 1 0 0 0 0 1 1 1 0 0 0 0 0 0 0 0 0 0 0 0 0 0 0 0 0 0 0 0 0 0 0 0 0 0 0 0
0 0 0 0 0 0 0 0 0 0 0 1 1 1 0 0 0 0 0 0 0 0 0 0 0 0 0 0 0 0 0 0 0 0 0 0 0 0 0 0 0 0 -0
0 0 0 0 0 0 0 0 1 0 1 1 1 1 0 0 0 0 0 0 0 0 0 0 0 -0 0 0 0 0 0 0 -0 0 0 0 0 0 0 0 0 0 0
0 0 0 0 0 0 0 0 0 0 1 1 1 0 0 0 0 0 0 0 0 0 0 0 0 -0 0 0 -0 0 -0 -0 -0 0 0 0 0 0 0 0 0 0 0
0 0 0 0 0 0 0 1 0 1 1 1 0 0 0 0 0 0 0 0 0 0 0 -0 -0 -0 0 0 0 -0 -0 -0 0 0 0 0 0 0 0 0 0 0 0
0 0 0 0 0 0 0 1 1 0 0 0 0 0 0 0 0 0 0 0 0 0 0 -0 -0 -0 -0 -0 -0 -0 -0 -0 0 0 0 0 0 0 0 0 0 0 -0
-0 0 0 0 0 0 0 1 0 0 0 0 0 0 0 0 0 0 0 0 0 -0 -0 -0 -0 -0 0 0 -0 -0 -0 -0 0 0 0 0 0 0 -0 0 0 0 0
0 0 0 0 0 0 0 0 0 0 0 0 0 0 0 0 0 0 0 0 0 0 -0 -0 -0 0 0 -0 -0 -0 -0 0 0 0 0 0 0 -0 -0 -0 0 0 0
0 0 0 0 0 0 0 0 0 0 0 0 0 0 0 0 0 0 0 0 -0 -0 -0 0 0 0 0 -0 -0 -0 0 0 0 0 0 -0 -0 -0 0 0 0 0 0
0 0 0 0 0 0 0 0 0 0 0 0 0 0 0 0 0 0 0 0 -0 0 0 0 0 0 -0 -0 -0 -0 0 0 0 0 0 0 0 0 0 0 0 0 0
0 0 0 0 0 0 0 0 0 0 0 0 0 0 0 0 0 0 -0 -0 -0 -0 0 0 -0 -0 0 0 0 0 0 0 0 0 0 0 0 0 0 0 0 0 0
Wind_Speed_500mb
50 47 48 44 46 42 36 36 44 48 46 57 65 68 68 59 50 46 45 44 42 40 38 32 34 30 23 21 23 15 15 10 17 16 18 22 25 18 14 12 18 23 25
50 47 48 47 47 46 39 36 38 48 54 46 64 70 65 57 53 47 50 48 44 40 39 33 29 29 22 20 18 20 12 10 17 9 17 13 12 11 19 9 18 19 33
50 46 46 51 48 48 45 40 36 40 46 52 52 67 62 58 58 52 47 47 47 42 40 37 28 33 26 20 26 12 11 8 15 8 11 14 14 18 10 17 21 31 22
42 42 46 50 50 50 45 39 36 37 43 45 63 65 70 68 62 57 48 49 52 46 40 42 36 31 23 28 20 15 12 16 6 5 10 13 16 12 16 27 24 24 33
27 35 42 45 49 49 47 44 35 36 40 48 58 64 73 69 59 59 55 52 55 50 44 43 44 40 27 32 15 12 15 17 7 4 1 7 6 14 20 28 32 28 32
14 25 32 41 47 46 46 44 38 36 37 41 46 64 67 78 63 67 62 51 49 51 47 45 41 38 32 23 20 15 13 8 3 3 8 14 10 14 17 25 30 36 35
17 16 17 31 39 47 47 44 42 39 37 40 45 61 64 66 64 66 58 60 54 52 59 57 44 37 28 22 19 17 5 2 3 6 15 6 16 24 19 22 30 33 31
22 10 12 14 22 35 41 42 42 39 43 40 44 50 70 65 68 68 67 67 69 63 69 56 44 38 31 24 21 8 8 9 6 7 9 10 17 17 15 18 25 32 31
5 7 6 9 16 18 17 24 32 39 43 40 41 51 58 67 73 74 76 77 58 69 60 50 36 31 25 19 15 11 9 2 3 6 9 14 16 14 15 17 19 26 37
9 8 8 11 12 18 23 24 26 35 40 40 37 42 55 68 75 74 83 79 76 68 66 53 28 26 24 22 19 12 8 6 6 8 10 12 14 15 15 17 20 22 28
17 18 22 25 22 24 24 25 22 28 40 37 36 40 47 71 71 77 75 82 83 84 62 41 39 37 31 26 18 13 12 11 9 11 15 16 17 15 18 19 21 24 28
35 35 36 41 36 32 27 26 24 24 33 40 36 38 43 57 76 77 85 88 93 64 50 45 48 37 33 26 22 18 14 11 12 12 14 16 16 20 22 20 26 26 28
29 34 39 41 41 41 34 30 27 26 26 38 37 32 38 44 66 87 81 87 78 69 59 55 50 45 39 31 23 18 14 13 14 15 16 18 20 23 24 25 28 26 26
36 36 40 40 43 42 40 33 28 24 25 33 34 30 29 39 47 103 104 94 84 73 65 54 49 44 39 33 26 19 15 18 18 17 18 21 26 28 31 26 26 29 29
44 38 40 42 40 41 38 35 30 24 24 29 28 26 30 38 54 10 57 91 88 76 67 60 50 46 40 33 29 21 20 22 23 21 19 26 26 29 32 34 34 37 34
52 44 45 48 49 44 40 35 30 23 21 27 25 25 23 38 37 54 65 89 86 81 59 63 60 52 41 34 28 27 26 27 23 19 19 24 27 28 35 41 42 44 48
55 60 58 53 53 43 43 41 31 22 21 24 35 39 46 55 81 84 78 77 87 84 78 66 57 53 46 35 31 29 29 25 23 23 24 22 28 30 29 29 33 37 44
64 52 41 41 48 39 41 39 31 23 23 26 43 52 64 71 68 62 63 79 79 79 75 69 56 46 44 38 32 29 30 28 28 27 25 28 32 35 32 27 29 23 30
48 52 57 52 38 39 34 38 33 26 22 50 55 61 67 77 72 77 69 82 88 80 73 63 55 51 47 40 37 30 31 29 31 33 34 33 35 31 31 33 30 30 28
73 80 65 55 52 50 43 31 35 25 40 61 61 73 86 89 90 71 81 86 85 84 73 61 53 49 48 40 35 35 29 32 28 28 35 40 40 40 38 37 37 34 29
79 63 52 57 56 49 46 31 32 37 56 67 71 78 84 81 83 82 86 83 89 82 73 63 54 51 47 44 36 42 29 27 25 24 27 39 43 45 39 39 38 37 24
74 58 54 57 52 48 44 35 46 46 67 91 91 98 84 91 99 90 90 86 86 80 73 63 58 54 52 46 39 34 37 34 33 33 37 44 43 55 55 46 31 24 26
87 70 62 53 49 44 44 57 53 65 81 90 92 87 89 90 69 88 94 86 74 72 64 57 58 58 56 49 45 42 42 48 52 47 51 54 57 46 42 47 40 38 35
57 59 62 54 51 50 54 71 76 88 90 94 94 94 108 109 85 92 85 81 71 60 56 46 48 44 39 31 27 33 36 42 44 38 49 47 44 44 35 36 38 39 40
48 57 57 57 55 76 84 77 94 100 105 108 107 106 110 114 92 70 65 68 55 53 57 51 47 53 54 49 43 43 48 54 51 41 38 39 40 37 37 37 42 43 41
78 79 72 74 90 88 92 99 100 101 111 124 122 129 125 114 89 88 87 71 68 60 60 63 65 66 62 56 52 52 61 57 49 41 44 44 42 45 48 51 51 51 53
Wind_Direction_500mb
251 245 241 241 232 231 227 230 226 219 221 222 218 211 204 202 201 201 195 200 195 203 199 188 195 191 199 206 221 237 241 260 292 297 282 265 298 303 343 286 303 311 312
245 239 235 233 233 233 228 234 231 228 219 229 225 218 210 203 202 200 198 197 203 203 192 182 201 201 202 203 215 216 211 277 297 300 300 291 228 316 338 298 311 315 311
252 240 230 228 231 230 230 230 232 240 241 223 237 220 208 206 202 197 198 193 196 191 183 176 192 208 175 207 207 209 225 258 293 300 340 315 314 326 96 321 319 311 336
249 248 239 227 226 229 231 228 232 233 230 233 229 219 213 204 198 196 195 191 191 187 176 184 188 193 173 203 192 209 191 204 258 331 338 328 335 344 3 330 327 333 327
255 255 237 236 225 230 233 230 229 234 229 226 232 221 215 205 197 196 194 190 189 189 182 184 194 183 178 201 208 220 195 198 156 146 51 328 331 343 4 324 321 322 327
303 275 247 234 233 229 231 231 226 232 233 233 228 223 217 215 204 192 189 186 180 177 185 184 186 175 189 191 197 178 175 163 123 166 15 333 328 3 10 321 325 330 331
258 270 249 240 233 231 233 234 231 232 236 235 228 223 214 211 207 195 186 178 178 181 188 189 184 178 185 181 160 157 162 214 258 303 357 10 349 1 2 336 333 332 331
274 264 295 279 242 227 235 237 243 237 231 232 234 232 222 216 211 198 187 179 183 185 191 189 174 176 182 179 168 179 216 265 286 348 29 22 6 15 1 355 337 335 334
304 302 305 294 279 285 259 249 255 240 236 230 232 229 229 215 206 200 198 198 181 188 184 173 177 184 180 179 213 232 245 349 337 37 26 25 22 13 10 360 346 341 334
285 323 313 307 303 290 271 265 266 245 240 232 231 233 232 217 208 203 203 195 193 186 175 166 183 221 203 204 213 193 183 175 106 53 24 22 29 19 10 354 349 348 340
300 304 308 288 289 295 293 265 260 255 243 236 230 230 226 218 216 202 194 191 186 180 181 194 210 187 194 200 180 183 161 148 87 51 36 34 26 37 11 14 352 357 345
297 305 297 298 288 284 286 282 272 271 248 236 236 237 227 226 212 189 187 192 187 178 169 181 173 188 180 165 165 160 150 113 83 67 55 41 34 45 15 20 359 354 349
288 298 305 292 284 273 279 282 280 279 263 233 229 239 233 231 217 174 188 187 177 173 166 183 171 173 167 161 145 140 131 105 85 74 65 47 39 32 29 22 13 354 356
296 293 285 283 281 275 268 275 280 276 264 233 226 237 220 215 214 190 182 184 175 167 172 166 165 161 152 142 141 134 116 92 84 75 66 52 39 30 29 22 20 7 7
289 288 289 282 282 282 263 261 273 270 262 233 227 218 215 214 198 112 155 166 161 156 156 153 155 148 139 140 144 132 114 99 84 76 39 43 34 30 31 31 27 21 16
285 287 293 279 271 267 260 260 264 265 249 221 186 193 198 181 182 189 172 152 144 145 152 154 158 150 145 146 141 131 124 105 98 79 66 32 37 31 33 26 27 15 11
274 285 294 277 260 255 248 250 253 253 244 223 174 159 163 164 149 142 152 141 146 153 154 155 145 144 137 140 139 134 114 101 93 80 69 45 43 39 51 27 27 15 13
281 281 277 272 256 254 246 241 240 237 236 192 168 170 162 156 157 155 152 155 153 147 143 142 140 137 135 141 128 113 101 95 83 75 64 51 43 41 41 37 37 30 28
271 274 279 274 267 252 253 236 230 222 216 168 164 163 168 171 169 160 162 159 146 137 137 138 142 142 134 128 113 103 94 90 80 67 60 52 46 39 36 39 37 35 42
274 272 267 258 254 252 249 235 218 199 181 174 175 160 157 155 159 148 155 144 140 143 136 136 136 137 119 108 107 95 93 87 78 57 46 49 44 36 33 38 43 39 25
268 262 251 246 245 241 235 230 205 170 178 169 161 160 160 161 157 160 162 149 143 136 138 137 130 120 113 103 99 107 101 93 89 75 56 47 43 39 34 46 58 37 41
263 250 240 235 231 224 211 214 180 173 176 161 156 151 149 152 149 144 153 147 139 135 130 126 118 110 102 100 100 99 102 106 91 73 61 50 48 39 28 35 34 44 39
248 241 229 221 213 203 192 182 171 175 170 165 160 159 156 154 157 166 154 142 137 128 123 119 113 106 103 101 96 93 91 83 74 64 57 50 46 46 35 23 36 40 44
214 207 206 200 193 183 182 164 165 166 164 157 156 153 150 146 149 146 141 132 123 121 122 120 113 110 104 97 83 81 74 76 74 54 49 49 51 46 37 37 41 44 44
155 167 180 181 173 164 159 162 164 165 155 144 143 138 136 136 126 132 125 125 126 128 132 123 116 117 111 104 102 96 89 82 74 64 58 53 50 46 44 45 50 51 49
131 138 148 151 150 156 157 162 165 169 158 142 141 139 139 142 145 139 132 130 137 135 128 119 115 107 102 99 94 93 87 80 74 67 61 54 52 52 53 54 55 56 53
Wind_Speed_850mb
50 47 48 44 46 42 36 36 44 48 46 57 65 68 68 59 50 46 45 44 42 40 38 32 34 30 23 21 23 15 15 10 17 16 18 22 25 18 14 12 18 23 25
50 47 48 47 47 46 39 36 38 48 54 46 64 70 65 57 53 47 50 48 44 40 39 33 29 29 22 20 18 20 12 10 17 9 17 13 12 11 19 9 18 19 33
50 46 46 51 48 48 45 40 36 40 46 52 52 67 62 58 58 52 47 47 47 42 40 37 28 33 26 20 26 12 11 8 15 8 11 14 14 18 10 17 21 31 22
42 42 46 50 50 50 45 39 36 37 43 45 63 65 70 68 62 57 48 49 52 46 40 42 36 31 23 28 20 15 12 16 6 5 10 13 16 12 16 27 24 24 33
27 35 42 45 49 49 47 44 35 36 40 48 58 64 73 69 59 59 55 52 55 50 44 43 44 40 27 32 15 12 15 17 7 4 1 7 6 14 20 28 32 28 32
14 25 32 41 47 46 46 44 38 36 37 41 46 64 67 78 63 67 62 51 49 51 47 45 41 38 32 23 20 15 13 8 3 3 8 14 10 14 17 25 30 36 35
17 16 17 31 39 47 47 44 42 39 37 40 45 61 64 66 64 66 58 60 54 52 59 57 44 37 28 22 19 17 5 2 3 6 15 6 16 24 19 22 30 33 31
22 10 12 14 22 35 41 42 42 39 43 40 44 50 70 65 68 68 67 67 69 63 69 56 44 38 31 24 21 8 8 9 6 7 9 10 17 17 15 18 25 32 31
5 7 6 9 16 18 17 24 32 39 43 40 41 51 58 67 73 74 76 77 58 69 60 50 36 31 25 19 15 11 9 2 3 6 9 14 16 14 15 17 19 26 37
9 8 8 11 12 18 23 24 26 35 40 40 37 42 55 68 75 74 83 79 76 68 66 53 28 26 24 22 19 12 8 6 6 8 10 12 14 15 15 17 20 22 28
17 18 22 25 22 24 24 25 22 28 40 37 36 40 47 71 71 77 75 82 83 84 62 41 39 37 31 26 18 13 12 11 9 11 15 16 17 15 18 19 21 24 28
35 35 36 41 36 32 27 26 24 24 33 40 36 38 43 57 76 77 85 88 93 64 50 45 48 37 33 26 22 18 14 11 12 12 14 16 16 20 22 20 26 26 28
29 34 39 41 41 41 34 30 27 26 26 38 37 32 38 44 66 87 81 87 78 69 59 55 50 45 39 31 23 18 14 13 14 15 16 18 20 23 24 25 28 26 26
36 36 40 40 43 42 40 33 28 24 25 33 34 30 29 39 47 103 104 94 84 73 65 54 49 44 39 33 26 19 15 18 18 17 18 21 26 28 31 26 26 29 29
44 38 40 42 40 41 38 35 30 24 24 29 28 26 30 38 54 10 57 91 88 76 67 60 50 46 40 33 29 21 20 22 23 21 19 26 26 29 32 34 34 37 34
52 44 45 48 49 44 40 35 30 23 21 27 25 25 23 38 37 54 65 89 86 81 59 63 60 52 41 34 28 27 26 27 23 19 19 24 27 28 35 41 42 44 48
55 60 58 53 53 43 43 41 31 22 21 24 35 39 46 55 81 84 78 77 87 84 78 66 57 53 46 35 31 29 29 25 23 23 24 22 28 30 29 29 33 37 44
64 52 41 41 48 39 41 39 31 23 23 26 43 52 64 71 68 62 63 79 79 79 75 69 56 46 44 38 32 29 30 28 28 27 25 28 32 35 32 27 29 23 30
48 52 57 52 38 39 34 38 33 26 22 50 55 61 67 77 72 77 69 82 88 80 73 63 55 51 47 40 37 30 31 29 31 33 34 33 35 31 31 33 30 30 28
73 80 65 55 52 50 43 31 35 25 40 61 61 73 86 89 90 71 81 86 85 84 73 61 53 49 48 40 35 35 29 32 28 28 35 40 40 40 38 37 37 34 29
79 63 52 57 56 49 46 31 32 37 56 67 71 78 84 81 83 82 86 83 89 82 73 63 54 51 47 44 36 42 29 27 25 24 27 39 43 45 39 39 38 37 24
74 58 54 57 52 48 44 35 46 46 67 91 91 98 84 91 99 90 90 86 86 80 73 63 58 54 52 46 39 34 37 34 33 33 37 44 43 55 55 46 31 24 26
87 70 62 53 49 44 44 57 53 65 81 90 92 87 89 90 69 88 94 86 74 72 64 57 58 58 56 49 45 42 42 48 52 47 51 54 57 46 42 47 40 38 35
57 59 62 54 51 50 54 71 76 88 90 94 94 94 108 109 85 92 85 81 71 60 56 46 48 44 39 31 27 33 36 42 44 38 49 47 44 44 35 36 38 39 40
48 57 57 57 55 76 84 77 94 100 105 108 107 106 110 114 92 70 65 68 55 53 57 51 47 53 54 49 43 43 48 54 51 41 38 39 40 37 37 37 42 43 41
78 79 72 74 90 88 92 99 100 101 111 124 122 129 125 114 89 88 87 71 68 60 60 63 65 66 62 56 52 52 61 57 49 41 44 44 42 45 48 51 51 51 53
Wind_Direction_850mb
251 245 241 241 232 231 227 230 226 219 221 222 218 211 204 202 201 201 195 200 195 203 199 188 195 191 199 206 221 237 241 260 292 297 282 265 298 303 343 286 303 311 312
245 239 235 233 233 233 228 234 231 228 219 229 225 218 210 203 202 200 198 197 203 203 192 182 201 201 202 203 215 216 211 277 297 300 300 291 228 316 338 298 311 315 311
252 240 230 228 231 230 230 230 232 240 241 223 237 220 208 206 202 197 198 193 196 191 183 176 192 208 175 207 207 209 225 258 293 300 340 315 314 326 96 321 319 311 336
249 248 239 227 226 229 231 228 232 233 230 233 229 219 213 204 198 196 195 191 191 187 176 184 188 193 173 203 192 209 191 204 258 331 338 328 335 344 3 330 327 333 327
255 255 237 236 225 230 233 230 229 234 229 226 232 221 215 205 197 196 194 190 189 189 182 184 194 183 178 201 208 220 195 198 156 146 51 328 331 343 4 324 321 322 327
303 275 247 234 233 229 231 231 226 232 233 233 228 223 217 215 204 192 189 186 180 177 185 184 186 175 189 191 197 178 175 163 123 166 15 333 328 3 10 321 325 330 331
258 270 249 240 233 231 233 234 231 232 236 235 228 223 214 211 207 195 186 178 178 181 188 189 184 178 185 181 160 157 162 214 258 303 357 10 349 1 2 336 333 332 331
274 264 295 279 242 227 235 237 243 237 231 232 234 232 222 216 211 198 187 179 183 185 191 189 174 176 182 179 168 179 216 265 286 348 29 22 6 15 1 355 337 335 334
304 302 305 294 279 285 259 249 255 240 236 230 232 229 229 215 206 200 198 198 181 188 184 173 177 184 180 179 213 232 245 349 337 37 26 25 22 13 10 360 346 341 334
285 323 313 307 303 290 271 265 266 245 240 232 231 233 232 217 208 203 203 195 193 186 175 166 183 221 203 204 213 193 183 175 106 53 24 22 29 19 10 354 349 348 340
300 304 308 288 289 295 293 265 260 255 243 236 230 230 226 218 216 202 194 191 186 180 181 194 210 187 194 200 180 183 161 148 87 51 36 34 26 37 11 14 352 357 345
297 305 297 298 288 284 286 282 272 271 248 236 236 237 227 226 212 189 187 192 187 178 169 181 173 188 180 165 165 160 150 113 83 67 55 41 34 45 15 20 359 354 349
288 298 305 292 284 273 279 282 280 279 263 233 229 239 233 231 217 174 188 187 177 173 166 183 171 173 167 161 145 140 131 105 85 74 65 47 39 32 29 22 13 354 356
296 293 285 283 281 275 268 275 280 276 264 233 226 237 220 215 214 190 182 184 175 167 172 166 165 161 152 142 141 134 116 92 84 75 66 52 39 30 29 22 20 7 7
289 288 289 282 282 282 263 261 273 270 262 233 227 218 215 214 198 112 155 166 161 156 156 153 155 148 139 140 144 132 114 99 84 76 39 43 34 30 31 31 27 21 16
285 287 293 279 271 267 260 260 264 265 249 221 186 193 198 181 182 189 172 152 144 145 152 154 158 150 145 146 141 131 124 105 98 79 66 32 37 31 33 26 27 15 11
274 285 294 277 260 255 248 250 253 253 244 223 174 159 163 164 149 142 152 141 146 153 154 155 145 144 137 140 139 134 114 101 93 80 69 45 43 39 51 27 27 15 13
281 281 277 272 256 254 246 241 240 237 236 192 168 170 162 156 157 155 152 155 153 147 143 142 140 137 135 141 128 113 101 95 83 75 64 51 43 41 41 37 37 30 28
271 274 279 274 267 252 253 236 230 222 216 168 164 163 168 171 169 160 162 159 146 137 137 138 142 142 134 128 113 103 94 90 80 67 60 52 46 39 36 39 37 35 42
274 272 267 258 254 252 249 235 218 199 181 174 175 160 157 155 159 148 155 144 140 143 136 136 136 137 119 108 107 95 93 87 78 57 46 49 44 36 33 38 43 39 25
268 262 251 246 245 241 235 230 205 170 178 169 161 160 160 161 157 160 162 149 143 136 138 137 130 120 113 103 99 107 101 93 89 75 56 47 43 39 34 46 58 37 41
263 250 240 235 231 224 211 214 180 173 176 161 156 151 149 152 149 144 153 147 139 135 130 126 118 110 102 100 100 99 102 106 91 73 61 50 48 39 28 35 34 44 39
248 241 229 221 213 203 192 182 171 175 170 165 160 159 156 154 157 166 154 142 137 128 123 119 113 106 103 101 96 93 91 83 74 64 57 50 46 46 35 23 36 40 44
214 207 206 200 193 183 182 164 165 166 164 157 156 153 150 146 149 146 141 132 123 121 122 120 113 110 104 97 83 81 74 76 74 54 49 49 51 46 37 37 41 44 44
155 167 180 181 173 164 159 162 164 165 155 144 143 138 136 136 126 132 125 125 126 128 132 123 116 117 111 104 102 96 89 82 74 64 58 53 50 46 44 45 50 51 49
131 138 148 151 150 156 157 162 165 169 158 142 141 139 139 142 145 139 132 130 137 135 128 119 115 107 102 99 94 93 87 80 74 67 61 54 52 52 53 54 55 56 53